Regional Weather Roundup
Issued by NWS

Home | Current Version | Previous Version | Graphics & Text | Print | Product List | Glossary On
Versions: 1 2 3 4 5 6 7 8 9 10 11 12 13 14 15 16 17 18 19 20 21 22 23 24 25 26 27 28 29 30 31 32 33 34 35 36 37 38 39 40 41 42 43 44 45 46 47 48 49 50
172
ASUS43 KIND 081559
RWRIN

WEATHER ROUNDUP FOR INDIANA
NATIONAL WEATHER SERVICE INDIANAPOLIS IN
1100 AM EST THU DEC 08 2016

NOTE: "FAIR" INDICATES FEW OR NO CLOUDS BELOW 12,000 FEET WITH NO
SIGNIFICANT WEATHER AND/OR OBSTRUCTIONS TO VISIBILITY.

* - STATION DOES NOT REPORT WEATHER SUCH AS PRECIPITATION OR FOG.

+ - STATION NOT QUALITY CONTROLLED BY THE NATIONAL WEATHER SERVICE.
    USE DATA WITH CAUTION...ESPECIALLY DEWPOINT AND RELATIVE
    HUMIDITY OBSERVATIONS.

INZ001>003-010>013-019-020-081700-
NORTHWEST INDIANA

CITY           SKY/WX    TMP DP  RH WIND       PRES   REMARKS
GARY /AIRPORT/ FLURRIES  21  12  68 W17G29    30.29R WCI   7

$$

LMZ046-743>745-081700-
SOUTHERN LAKE MICHIGAN

STATION/POSITION TIME  TEMP    WIND        PRES    WAVE
                       AIR SEA DIR/SP/G            HT
                 (UTC) (F)     (DEG/KT/KT) (MB)    (FT)

$$

INZ004-005-014>016-021>024-081700-
NORTH CENTRAL INDIANA

CITY           SKY/WX    TMP DP  RH WIND       PRES   REMARKS
GOSHEN         CLOUDY    22  13  68 W18G28    30.21R WCI   7
PERU/GRISSOM   FLURRIES  21  16  79 W22       30.26R WCI   5
SOUTH BEND     LGT SNOW  20  15  81 W16       30.22R WCI   6

$$

INZ006>009-017-018-025>027-081700-
NORTHEAST INDIANA

CITY           SKY/WX    TMP DP  RH WIND       PRES   REMARKS
ANGOLA *+      CLOUDY    21  18  86 W12       30.15R WCI   9
FORT WAYNE     LGT SNOW  22  15  75 W20G30    30.23R WCI   7
KENDALLVILLE + LGT SNOW  22  15  75 W23G29    30.18R WCI   6

$$

INZ028-029-035-036-043>045-051>053-081700-
WEST CENTRAL INDIANA

CITY           SKY/WX    TMP DP  RH WIND       PRES   REMARKS
CRAWFORDSVL +  FLURRIES  19  13  77 W17       30.35R WCI   4
GREENCASTLE +  FLURRIES  21  18  86 W12G18    30.36R WCI   9
LAFAYETTE      CLOUDY    21  13  71 W22G31    30.33R WCI   5
TERRE HAUTE    FLURRIES  23  13  65 W12G20    30.40R WCI  12

$$

INZ030>032-037>040-046>048-054>057-064-065-081700-
CENTRAL INDIANA

CITY           SKY/WX    TMP DP  RH WIND       PRES   REMARKS
ANDERSON       FLURRIES  21  14  73 W17G29    30.30  WCI   7
COLUMBUS       MOSUNNY   27  18  69 W15G23    30.35R WCI  15
GREENWOOD *+   CLOUDY    23  16  73 W16G26    30.33R WCI  10
INDIANAPOLIS   FLURRIES  22  13  68 W20G28    30.34R WCI   7
-EAGLE CREEK   CLOUDY    22  14  71 NW18G28   30.33R WCI   7
KOKOMO +       FLURRIES  22  15  75 W28       30.28R WCI   4
SHELBYVILLE    CLOUDY    24  13  62 W16G28    30.32R WCI  11

$$

INZ033-034-041-042-049-050-058-059-081700-
EAST CENTRAL INDIANA

CITY           SKY/WX    TMP DP  RH WIND       PRES   REMARKS
MUNCIE         FLURRIES  23  14  68 W17G28    30.27R WCI   9

$$

INZ060-061-067>069-081>083-085>088-081700-
SOUTHWEST INDIANA

CITY           SKY/WX    TMP DP  RH WIND       PRES   REMARKS
EVANSVILLE     SUNNY     30  14  51 W12       30.46R WCI  20
HUNTINGBURG *+ SUNNY     28  16  59 W14       30.43R WCI  17

$$

INZ062-063-066-070>080-084-089>092-081700-
SOUTH CENTRAL AND SOUTHEAST INDIANA

CITY           SKY/WX    TMP DP  RH WIND       PRES   REMARKS
BLOOMINGTON    MOSUNNY   25  14  63 W18G25    30.36R WCI  11
MADISON *+     SUNNY     30  16  55 W13       30.36R WCI  20
SEYMOUR +      SUNNY     30  16  55 W17       30.36R WCI  18

$$





USA.gov is the U.S. government's official web portal to all federal, state and local government web resources and services.